| time (UTC) | temp F | wind direction | speed knots | gust knots | rain 1hr in | rain 24hr in | rain mn in | humidity % | barometer mb |
| 20260506034405 | 69 | 106 | 1.7 | 4.3 | 0.00 | 0.00 | 0.00 | 79 | 1026.7 |
| 20260506033906 | 69 | 96 | 2.6 | 4.3 | 0.00 | 0.00 | 0.00 | 78 | 1026.8 |
| 20260506031905 | 69 | 86 | 0.9 | 2.6 | 0.00 | 0.00 | 0.00 | 80 | 1026.9 |
| 20260506031406 | 69 | 86 | 0.9 | 2.6 | 0.00 | 0.00 | 0.00 | 80 | 1026.9 |
| 20260506030905 | 69 | 87 | 1.7 | 4.3 | 0.00 | 0.00 | 0.00 | 80 | 1027.0 |
| 20260506024904 | 69 | 83 | 1.7 | 2.6 | 0.00 | 0.00 | 0.00 | 79 | 1027.1 |
| 20260506023905 | 69 | 65 | 2.6 | 5.2 | 0.00 | 0.00 | 0.00 | 78 | 1027.1 |
| 20260506022905 | 69 | 65 | 2.6 | 5.2 | 0.00 | 0.00 | 0.00 | 77 | 1027.1 |
| 20260506022405 | 70 | 27 | 0.0 | 2.6 | 0.00 | 0.00 | 0.00 | 76 | 1027.1 |
| 20260506020906 | 70 | 36 | 2.6 | 2.6 | 0.00 | 0.00 | 0.00 | 77 | 1027.1 |
| 20260506015905 | 69 | 38 | 0.9 | 1.7 | 0.00 | 0.00 | 0.00 | 80 | 1027.0 |
| 20260506015405 | 68 | 38 | 1.7 | 2.6 | 0.00 | 0.00 | 0.00 | 81 | 1027.1 |
| 20260506014905 | 68 | 59 | 2.6 | 4.3 | 0.00 | 0.00 | 0.00 | 81 | 1027.1 |
| 20260506014405 | 68 | 68 | 3.5 | 5.2 | 0.00 | 0.00 | 0.00 | 81 | 1027.2 |
| 20260506013405 | 68 | 72 | 5.2 | 7.0 | 0.00 | 0.00 | 0.00 | 80 | 1027.3 |
| 20260506012404 | 69 | 55 | 4.3 | 7.8 | 0.00 | 0.00 | 0.00 | 79 | 1027.4 |
| 20260506011405 | 69 | 24 | 2.6 | 4.3 | 0.00 | 0.00 | 0.00 | 79 | 1027.4 |
| 20260506010905 | 69 | 8 | 1.7 | 2.6 | 0.00 | 0.00 | 0.00 | 80 | 1027.5 |
| 20260506004904 | 68 | 30 | 4.3 | 7.8 | 0.00 | 0.00 | 0.00 | 81 | 1027.7 |
| 20260506003404 | 68 | 48 | 5.2 | 7.0 | 0.00 | 0.00 | 0.00 | 81 | 1027.8 |
| 20260506002404 | 68 | 42 | 6.1 | 8.7 | 0.00 | 0.00 | 0.00 | 81 | 1028.0 |
| 20260506000905 | 68 | 52 | 4.3 | 6.1 | 0.00 | 0.00 | 0.00 | 82 | 1028.1 |
| 20260505235905 | 68 | 41 | 4.3 | 6.1 | 0.00 | 0.00 | 0.00 | 81 | 1028.2 |
| 20260505235406 | 67 | 62 | 5.2 | 8.7 | 0.00 | 0.00 | 0.00 | 82 | 1028.4 |
| 20260505233906 | 68 | 71 | 4.3 | 6.1 | 0.00 | 0.00 | 0.00 | 81 | 1028.5 |
| 20260505233405 | 68 | 68 | 5.2 | 7.0 | 0.00 | 0.00 | 0.00 | 82 | 1028.5 |
| 20260505232905 | 68 | 65 | 3.5 | 5.2 | 0.00 | 0.00 | 0.00 | 81 | 1028.6 |
| 20260505232406 | 68 | 49 | 4.3 | 6.1 | 0.00 | 0.00 | 0.00 | 83 | 1028.7 |
| 20260505230905 | 67 | 67 | 2.6 | 6.1 | 0.00 | 0.00 | 0.00 | 85 | 1028.9 |
| 20260505225906 | 66 | 91 | 1.7 | 4.3 | 0.00 | 0.00 | 0.00 | 87 | 1029.0 |
| 20260505225405 | 65 | 94 | 3.5 | 6.1 | 0.00 | 0.00 | 0.00 | 88 | 1029.0 |
| 20260505222904 | 64 | 71 | 2.6 | 4.3 | 0.00 | 0.00 | 0.00 | 90 | 1029.3 |
| 20260505221905 | 63 | 70 | 5.2 | 6.1 | 0.00 | 0.00 | 0.00 | 90 | 1029.4 |
| 20260505220905 | 64 | 70 | 4.3 | 6.1 | 0.00 | 0.00 | 0.00 | 90 | 1029.4 |
| 20260505215905 | 64 | 84 | 1.7 | 4.3 | 0.00 | 0.00 | 0.00 | 91 | 1029.4 |
| 20260505215405 | 64 | 100 | 1.7 | 2.6 | 0.00 | 0.00 | 0.00 | 92 | 1029.4 |
| 20260505214905 | 63 | 209 | 0.9 | 2.6 | 0.00 | 0.00 | 0.00 | 93 | 1029.4 |
| 20260505214405 | 62 | 228 | 0.9 | 1.7 | 0.00 | 0.00 | 0.00 | 93 | 1029.4 |
| 20260505213405 | 61 | 229 | 0.0 | 0.9 | 0.00 | 0.00 | 0.00 | 94 | 1029.5 |
| 20260505212905 | 61 | 229 | 0.0 | 0.0 | 0.00 | 0.00 | 0.00 | 94 | 1029.7 |
| 20260505212404 | 60 | 229 | 0.0 | 0.0 | 0.00 | 0.00 | 0.00 | 94 | 1029.7 |
| 20260505210905 | 59 | 229 | 0.0 | 0.0 | 0.00 | 0.00 | 0.00 | 94 | 1029.7 |
| 20260505205905 | 58 | 229 | 0.0 | 0.0 | 0.00 | 0.00 | 0.00 | 94 | 1029.8 |
| 20260505205404 | 58 | 228 | 0.0 | 0.0 | 0.00 | 0.00 | 0.00 | 94 | 1029.8 |
| 20260505204905 | 58 | 228 | 0.0 | 0.0 | 0.00 | 0.00 | 0.00 | 94 | 1029.8 |
| 20260505204405 | 58 | 228 | 0.0 | 0.0 | 0.00 | 0.00 | 0.00 | 94 | 1029.8 |
| 20260505203405 | 57 | 228 | 0.0 | 0.0 | 0.00 | 0.00 | 0.00 | 95 | 1029.7 |
| 20260505202905 | 57 | 226 | 0.0 | 0.0 | 0.00 | 0.00 | 0.00 | 94 | 1029.7 |
| 20260505202405 | 57 | 226 | 0.0 | 0.0 | 0.00 | 0.00 | 0.00 | 95 | 1029.6 |
| 20260505200904 | 57 | 224 | 0.0 | 0.0 | 0.00 | 0.00 | 0.00 | 95 | 1029.3 |
| 20260505200405 | 57 | 223 | 0.0 | 0.0 | 0.00 | 0.00 | 0.00 | 95 | 1029.2 |
| 20260505195405 | 56 | 223 | 0.0 | 0.9 | 0.00 | 0.00 | 0.00 | 94 | 1029.2 |
| 20260505194904 | 56 | 225 | 0.0 | 0.9 | 0.00 | 0.00 | 0.00 | 94 | 1029.2 |
| 20260505194406 | 55 | 225 | 0.0 | 0.9 | 0.00 | 0.00 | 0.00 | 94 | 1029.1 |
| 20260505193906 | 55 | 225 | 0.0 | 0.9 | 0.00 | 0.00 | 0.00 | 94 | 1029.1 |
| 20260505190906 | 55 | 226 | 0.0 | 0.0 | 0.00 | 0.00 | 0.00 | 94 | 1029.1 |
| 20260505185906 | 55 | 226 | 0.0 | 0.0 | 0.00 | 0.00 | 0.00 | 94 | 1028.9 |
| 20260505185406 | 55 | 226 | 0.0 | 0.0 | 0.00 | 0.00 | 0.00 | 94 | 1028.9 |
| 20260505184906 | 54 | 226 | 0.0 | 0.0 | 0.00 | 0.00 | 0.00 | 94 | 1028.9 |
| 20260505184405 | 54 | 226 | 0.0 | 0.0 | 0.00 | 0.00 | 0.00 | 94 | 1028.8 |
| 20260505183406 | 54 | 226 | 0.0 | 0.0 | 0.00 | 0.00 | 0.00 | 94 | 1028.8 |
| 20260505182406 | 55 | 226 | 0.0 | 0.0 | 0.00 | 0.00 | 0.00 | 94 | 1028.8 |
| 20260505180906 | 55 | 226 | 0.0 | 0.0 | 0.00 | 0.00 | 0.00 | 94 | 1028.8 |
| 20260505174906 | 56 | 226 | 0.0 | 0.0 | 0.00 | 0.00 | 0.00 | 94 | 1028.8 |
| 20260505173406 | 56 | 226 | 0.0 | 0.9 | 0.00 | 0.00 | 0.00 | 94 | 1028.8 |
| 20260505172906 | 56 | 226 | 0.9 | 2.6 | 0.00 | 0.00 | 0.00 | 94 | 1028.8 |
| 20260505172406 | 56 | 226 | 1.7 | 2.6 | 0.00 | 0.00 | 0.00 | 94 | 1028.8 |
| 20260505171906 | 56 | 226 | 1.7 | 2.6 | 0.00 | 0.00 | 0.00 | 94 | 1028.9 |
| 20260505170406 | 56 | 226 | 1.7 | 2.6 | 0.00 | 0.00 | 0.00 | 94 | 1028.9 |
| 20260505165906 | 56 | 226 | 0.9 | 2.6 | 0.00 | 0.00 | 0.00 | 94 | 1028.9 |
| 20260505161905 | 55 | 226 | 0.0 | 0.0 | 0.00 | 0.00 | 0.00 | 94 | 1028.9 |
| 20260505161406 | 55 | 226 | 0.0 | 0.0 | 0.00 | 0.00 | 0.00 | 94 | 1028.9 |
| 20260505160906 | 55 | 226 | 0.0 | 0.0 | 0.00 | 0.00 | 0.00 | 94 | 1028.9 |
| 20260505160406 | 55 | 226 | 0.0 | 0.0 | 0.00 | 0.00 | 0.00 | 94 | 1029.0 |
| 20260505152905 | 54 | 226 | 0.0 | 0.9 | 0.00 | 0.00 | 0.00 | 93 | 1029.1 |
| 20260505151406 | 54 | 226 | 0.9 | 1.7 | 0.00 | 0.00 | 0.00 | 93 | 1029.2 |
| 20260505150906 | 54 | 226 | 0.0 | 0.9 | 0.00 | 0.00 | 0.00 | 92 | 1029.2 |
| 20260505150406 | 55 | 226 | 0.9 | 1.7 | 0.00 | 0.00 | 0.00 | 93 | 1029.3 |
| 20260505124905 | 58 | 208 | 0.9 | 2.6 | 0.00 | 0.00 | 0.00 | 90 | 1030.5 |
| 20260505123905 | 58 | 208 | 1.7 | 2.6 | 0.00 | 0.00 | 0.00 | 90 | 1030.5 |
| 20260505123405 | 58 | 208 | 1.7 | 2.6 | 0.00 | 0.00 | 0.00 | 90 | 1030.5 |
| 20260505122905 | 58 | 208 | 0.9 | 2.6 | 0.00 | 0.00 | 0.00 | 90 | 1030.5 |
| 20260505122404 | 58 | 208 | 2.6 | 2.6 | 0.00 | 0.00 | 0.00 | 90 | 1030.4 |
| 20260505120905 | 58 | 213 | 0.9 | 1.7 | 0.00 | 0.00 | 0.00 | 90 | 1030.5 |
| 20260505115905 | 58 | 213 | 0.9 | 1.7 | 0.00 | 0.00 | 0.00 | 90 | 1030.5 |
| 20260505114406 | 58 | 196 | 1.7 | 2.6 | 0.00 | 0.00 | 0.00 | 90 | 1030.5 |
| 20260505112905 | 58 | 143 | 0.0 | 0.0 | 0.00 | 0.00 | 0.00 | 89 | 1030.6 |
| 20260505112405 | 58 | 143 | 0.0 | 0.0 | 0.00 | 0.00 | 0.00 | 89 | 1030.6 |
| 20260505111906 | 58 | 143 | 0.0 | 0.0 | 0.00 | 0.00 | 0.00 | 89 | 1030.6 |
| 20260505111405 | 59 | 143 | 0.0 | 0.0 | 0.00 | 0.00 | 0.00 | 88 | 1030.6 |
| 20260505110906 | 59 | 143 | 0.0 | 0.0 | 0.00 | 0.00 | 0.00 | 88 | 1030.6 |
| 20260505110405 | 59 | 143 | 0.0 | 0.0 | 0.00 | 0.00 | 0.00 | 88 | 1030.6 |
| 20260505101905 | 60 | 146 | 1.7 | 2.6 | 0.00 | 0.00 | 0.00 | 86 | 1030.9 |
| 20260505101405 | 60 | 146 | 2.6 | 2.6 | 0.00 | 0.00 | 0.00 | 86 | 1030.9 |
| 20260505095905 | 60 | 148 | 2.6 | 4.3 | 0.00 | 0.00 | 0.00 | 87 | 1030.9 |
| 20260505094906 | 59 | 148 | 2.6 | 4.3 | 0.00 | 0.00 | 0.00 | 88 | 1030.9 |
| 20260505093405 | 59 | 68 | 0.9 | 2.6 | 0.00 | 0.00 | 0.00 | 87 | 1030.8 |
| 20260505092905 | 60 | 68 | 0.9 | 2.6 | 0.00 | 0.00 | 0.00 | 87 | 1030.8 |
| 20260505084406 | 59 | 68 | 1.7 | 2.6 | 0.00 | 0.00 | 0.00 | 86 | 1030.7 |
| 20260505083906 | 59 | 68 | 1.7 | 4.3 | 0.00 | 0.00 | 0.00 | 85 | 1030.7 |
| 20260505082405 | 60 | 67 | 1.7 | 2.6 | 0.00 | 0.00 | 0.00 | 84 | 1030.7 |
| 20260505081905 | 60 | 66 | 0.9 | 2.6 | 0.00 | 0.00 | 0.00 | 84 | 1030.7 |
| 20260505081405 | 60 | 66 | 1.7 | 2.6 | 0.00 | 0.00 | 0.00 | 84 | 1030.8 |
| 20260505075905 | 61 | 65 | 2.6 | 5.2 | 0.00 | 0.00 | 0.00 | 83 | 1030.8 |
| 20260505075406 | 60 | 52 | 2.6 | 4.3 | 0.00 | 0.00 | 0.00 | 84 | 1030.8 |
| 20260505074906 | 60 | 46 | 1.7 | 2.6 | 0.00 | 0.00 | 0.00 | 84 | 1030.8 |
| 20260505072405 | 60 | 38 | 1.7 | 2.6 | 0.00 | 0.00 | 0.00 | 84 | 1030.8 |
| 20260505070906 | 60 | 30 | 0.9 | 2.6 | 0.00 | 0.00 | 0.00 | 83 | 1030.6 |
| 20260505062905 | 61 | 20 | 4.3 | 5.2 | 0.00 | 0.00 | 0.00 | 83 | 1030.6 |
| 20260505061906 | 61 | 27 | 4.3 | 6.1 | 0.00 | 0.00 | 0.00 | 82 | 1030.5 |
| 20260505061405 | 61 | 27 | 4.3 | 5.2 | 0.00 | 0.00 | 0.00 | 83 | 1030.5 |
| 20260505060406 | 60 | 19 | 2.6 | 5.2 | 0.00 | 0.00 | 0.00 | 84 | 1030.5 |
| 20260505055404 | 61 | 33 | 1.7 | 2.6 | 0.00 | 0.00 | 0.00 | 83 | 1030.4 |
| 20260505054905 | 61 | 34 | 1.7 | 2.6 | 0.00 | 0.00 | 0.00 | 83 | 1030.3 |
| 20260505053906 | 61 | 38 | 2.6 | 2.6 | 0.00 | 0.00 | 0.00 | 82 | 1030.3 |
| 20260505053406 | 62 | 40 | 2.6 | 2.6 | 0.00 | 0.00 | 0.00 | 82 | 1030.2 |
| 20260505051905 | 63 | 25 | 2.6 | 4.3 | 0.00 | 0.00 | 0.00 | 81 | 1030.2 |
| 20260505051406 | 63 | 23 | 2.6 | 4.3 | 0.00 | 0.00 | 0.00 | 80 | 1030.3 |
| 20260505050905 | 63 | 45 | 2.6 | 4.3 | 0.00 | 0.00 | 0.00 | 79 | 1030.3 |
| 20260505041406 | 65 | 60 | 4.3 | 6.1 | 0.00 | 0.00 | 0.00 | 75 | 1030.4 |
| 20260505040905 | 65 | 54 | 4.3 | 6.1 | 0.00 | 0.00 | 0.00 | 75 | 1030.5 |
| 20260505035906 | 66 | 55 | 3.5 | 6.1 | 0.00 | 0.00 | 0.00 | 75 | 1030.5 |